Hourly Weather Otradnyy

Today, 30 July, Friday

Time Temperature Precipitation Wind Pressure Humidity
00:00 +15°C° 0 mm 2 mps 747 mmHg 73%
01:00 +15°C° 0 mm 2 mps 747 mmHg 73%
02:00 +15°C° 0 mm 1 mps 747 mmHg 74%
03:00 +15°C° 0 mm 1 mps 748 mmHg 74%
04:00 +15°C° 0 mm 1 mps 748 mmHg 77%
05:00 +15°C° 0 mm 1 mps 748 mmHg 80%
06:00 +15°C° 0 mm 1 mps 748 mmHg 81%
07:00 +16°C° 0 mm 1 mps 748 mmHg 78%
08:00 +16°C° 0 mm 0 mps 748 mmHg 74%
09:00 +17°C° 0 mm 0 mps 748 mmHg 71%
10:00 +20°C° 0 mm 1 mps 748 mmHg 70%
11:00 +20°C° 0 mm 1 mps 749 mmHg 69%
12:00 +21°C° 0 mm 1 mps 749 mmHg 68%
13:00 +21°C° 0.4 mm 1 mps 749 mmHg 72%
14:00 +19°C° 0.4 mm 2 mps 749 mmHg 76%
15:00 +19°C° 0.4 mm 2 mps 749 mmHg 79%
16:00 +20°C° 0.3 mm 2 mps 749 mmHg 77%
17:00 +21°C° 0.3 mm 1 mps 749 mmHg 74%
18:00 +21°C° 0.3 mm 1 mps 749 mmHg 72%
19:00 +19°C° 0 mm 1 mps 749 mmHg 75%
20:00 +16°C° 0 mm 1 mps 750 mmHg 79%
21:00 +14°C° 0 mm 1 mps 750 mmHg 83%
22:00 +14°C° 0 mm 1 mps 751 mmHg 82%
23:00 +13°C° 0 mm 1 mps 751 mmHg 80%

Tomorrow, 31 July, Saturday

Time Temperature Precipitation Wind Pressure Humidity
00:00 +12°C° 0 mm 1 mps 751 mmHg 79%
01:00 +12°C° 0 mm 1 mps 751 mmHg 80%
02:00 +12°C° 0 mm 1 mps 751 mmHg 81%
03:00 +11°C° 0 mm 1 mps 752 mmHg 82%
04:00 +12°C° 0 mm 1 mps 752 mmHg 81%
05:00 +13°C° 0 mm 1 mps 752 mmHg 81%
06:00 +13°C° 0 mm 1 mps 752 mmHg 81%
07:00 +16°C° 0 mm 2 mps 752 mmHg 71%
08:00 +18°C° 0 mm 2 mps 752 mmHg 61%
09:00 +20°C° 0 mm 3 mps 752 mmHg 51%
10:00 +21°C° 0 mm 3 mps 752 mmHg 48%
11:00 +24°C° 0 mm 3 mps 752 mmHg 44%
12:00 +25°C° 0 mm 4 mps 752 mmHg 41%
13:00 +25°C° 0 mm 4 mps 751 mmHg 40%
14:00 +25°C° 0 mm 4 mps 751 mmHg 39%
15:00 +26°C° 0 mm 4 mps 751 mmHg 39%
16:00 +25°C° 0 mm 4 mps 750 mmHg 45%
17:00 +24°C° 0 mm 3 mps 750 mmHg 50%
18:00 +22°C° 0 mm 3 mps 750 mmHg 56%
19:00 +21°C° 0 mm 3 mps 750 mmHg 59%
20:00 +20°C° 0 mm 3 mps 750 mmHg 61%
21:00 +19°C° 0 mm 2 mps 750 mmHg 64%
22:00 +19°C° 0 mm 3 mps 750 mmHg 63%
23:00 +19°C° 0 mm 3 mps 749 mmHg 62%

Day after tomorrow, 1 August, Sunday

Time Temperature Precipitation Wind Pressure Humidity
00:00 +19°C° 0 mm 3 mps 749 mmHg 60%
01:00 +18°C° 0 mm 3 mps 749 mmHg 63%
02:00 +18°C° 0 mm 2 mps 749 mmHg 65%
03:00 +17°C° 0 mm 2 mps 749 mmHg 67%
04:00 +17°C° 0 mm 2 mps 749 mmHg 72%
05:00 +16°C° 0 mm 1 mps 749 mmHg 77%
06:00 +16°C° 0 mm 1 mps 749 mmHg 81%
07:00 +18°C° 0.4 mm 1 mps 749 mmHg 83%
08:00 +18°C° 0.4 mm 1 mps 749 mmHg 84%
09:00 +19°C° 0.4 mm 1 mps 749 mmHg 86%
10:00 +21°C° 0.1 mm 1 mps 749 mmHg 77%
11:00 +22°C° 0.1 mm 1 mps 749 mmHg 68%
12:00 +24°C° 0.1 mm 1 mps 748 mmHg 59%
13:00 +24°C° 0.4 mm 1 mps 748 mmHg 60%
14:00 +24°C° 0.4 mm 1 mps 748 mmHg 60%
15:00 +24°C° 0.4 mm 1 mps 748 mmHg 61%
16:00 +24°C° 0.1 mm 2 mps 748 mmHg 61%
17:00 +24°C° 0.1 mm 2 mps 748 mmHg 60%
18:00 +24°C° 0.1 mm 2 mps 748 mmHg 60%
19:00 +20°C° 0 mm 2 mps 748 mmHg 69%
20:00 +18°C° 0 mm 2 mps 748 mmHg 79%
21:00 +16°C° 0 mm 2 mps 748 mmHg 89%
22:00 +15°C° 0 mm 1 mps 748 mmHg 91%
23:00 +14°C° 0 mm 1 mps 748 mmHg 93%

2 August, Monday

Time Temperature Precipitation Wind Pressure Humidity
00:00 +14°C° 0 mm 1 mps 748 mmHg 95%
01:00 +13°C° 0 mm 1 mps 747 mmHg 95%
02:00 +13°C° 0 mm 1 mps 747 mmHg 96%
03:00 +13°C° 0 mm 1 mps 747 mmHg 96%
04:00 +13°C° 0 mm 1 mps 747 mmHg 94%
05:00 +14°C° 0 mm 1 mps 747 mmHg 92%
06:00 +14°C° 0 mm 0 mps 747 mmHg 91%
07:00 +18°C° 0 mm 1 mps 747 mmHg 82%
08:00 +20°C° 0 mm 1 mps 747 mmHg 74%
09:00 +22°C° 0 mm 1 mps 746 mmHg 65%
10:00 +24°C° 0 mm 1 mps 746 mmHg 59%
11:00 +25°C° 0 mm 1 mps 746 mmHg 52%
12:00 +24°C° 0 mm 0 mps 745 mmHg 46%
13:00 +26°C° 0 mm 1 mps 745 mmHg 44%
14:00 +27°C° 0 mm 1 mps 745 mmHg 42%
15:00 +27°C° 0 mm 1 mps 745 mmHg 40%
16:00 +26°C° 0 mm 1 mps 745 mmHg 47%
17:00 +26°C° 0 mm 1 mps 744 mmHg 53%
18:00 +25°C° 0 mm 1 mps 744 mmHg 59%
19:00 +23°C° 0.1 mm 1 mps 744 mmHg 65%
20:00 +22°C° 0.1 mm 1 mps 744 mmHg 71%
21:00 +20°C° 0.1 mm 1 mps 744 mmHg 77%
22:00 +19°C° 0 mm 1 mps 743 mmHg 78%
23:00 +19°C° 0 mm 1 mps 743 mmHg 80%

3 August, Tuesday

Time Temperature Precipitation Wind Pressure Humidity
00:00 +18°C° 0 mm 2 mps 743 mmHg 81%
01:00 +17°C° 0 mm 2 mps 743 mmHg 84%
02:00 +18°C° 0 mm 1 mps 743 mmHg 86%
03:00 +18°C° 0 mm 1 mps 742 mmHg 89%
04:00 +18°C° 0 mm 1 mps 742 mmHg 89%
05:00 +18°C° 0 mm 1 mps 742 mmHg 89%
06:00 +19°C° 0 mm 1 mps 742 mmHg 89%
07:00 +19°C° 0.2 mm 1 mps 742 mmHg 88%
08:00 +20°C° 0.2 mm 1 mps 742 mmHg 87%
09:00 +21°C° 0.2 mm 1 mps 742 mmHg 86%
10:00 +21°C° 0.1 mm 1 mps 742 mmHg 86%
11:00 +20°C° 0.1 mm 2 mps 742 mmHg 85%
12:00 +21°C° 0.1 mm 2 mps 742 mmHg 85%
13:00 +21°C° 0.9 mm 2 mps 742 mmHg 85%
14:00 +22°C° 0.9 mm 3 mps 742 mmHg 85%
15:00 +24°C° 0.9 mm 3 mps 742 mmHg 85%
16:00 +22°C° 0.9 mm 3 mps 743 mmHg 86%
17:00 +23°C° 0.9 mm 2 mps 743 mmHg 86%
18:00 +23°C° 0.9 mm 2 mps 743 mmHg 87%
19:00 +20°C° 0.1 mm 2 mps 743 mmHg 90%
20:00 +19°C° 0.1 mm 2 mps 743 mmHg 93%
21:00 +18°C° 0.1 mm 2 mps 743 mmHg 96%
22:00 +17°C° 0 mm 2 mps 743 mmHg 97%
23:00 +17°C° 0 mm 2 mps 743 mmHg 97%

4 August, Wednesday

Time Temperature Precipitation Wind Pressure Humidity
00:00 +16°C° 0 mm 2 mps 743 mmHg 98%
01:00 +16°C° 0.1 mm 1 mps 743 mmHg 98%
02:00 +16°C° 0.1 mm 1 mps 743 mmHg 98%
03:00 +16°C° 0.1 mm 1 mps 744 mmHg 98%
04:00 +16°C° 0.1 mm 1 mps 744 mmHg 98%
05:00 +18°C° 0.1 mm 1 mps 744 mmHg 97%
06:00 +18°C° 0.1 mm 1 mps 744 mmHg 96%
07:00 +19°C° 0.2 mm 1 mps 744 mmHg 93%
08:00 +19°C° 0.2 mm 1 mps 744 mmHg 90%
09:00 +20°C° 0.2 mm 1 mps 745 mmHg 87%
10:00 +20°C° 0.2 mm 1 mps 745 mmHg 86%
11:00 +20°C° 0.2 mm 1 mps 745 mmHg 85%
12:00 +21°C° 0.2 mm 1 mps 745 mmHg 83%
13:00 +21°C° 0.6 mm 1 mps 745 mmHg 80%
14:00 +21°C° 0.6 mm 2 mps 745 mmHg 77%
15:00 +21°C° 0.6 mm 2 mps 745 mmHg 75%
16:00 +22°C° 0.5 mm 1 mps 745 mmHg 78%
17:00 +22°C° 0.5 mm 1 mps 745 mmHg 82%
18:00 +21°C° 0.5 mm 1 mps 745 mmHg 85%
19:00 +20°C° 0.3 mm 1 mps 745 mmHg 89%
20:00 +19°C° 0.3 mm 1 mps 745 mmHg 92%
21:00 +16°C° 0.3 mm 1 mps 746 mmHg 96%
22:00 +16°C° 0 mm 1 mps 746 mmHg 96%
23:00 +15°C° 0 mm 1 mps 746 mmHg 96%
Show more